Date String (YYYY-MM-DD hh:mm:ss) UTC,Instrument flags,absolute air pressure of the measurement (hPa),sample flow rate (lpm),inlet stack bypass flow (lpm),air temperature of the measurement (°C),ambient temperature measured by the external sensor (°C),aerosol sample conditioner tube jacket temperature (°C),OPC LED temperature (°C),internal box temperature (°C),relative humidity of the measurement (%),span deviation,mass concentration of particles derived from Lorenz-Mie calculation of OPC scattering (μg/m³),mass concentration of particles derived from Lorenz-Mie calculation of OPC scattering (μg/m³),mass concentration of particles derived from Lorenz-Mie calculation of OPC scattering (μg/m³)
DateTimeUTC,F1_M11,P_M11,Q1_M11,Q2_M11,T1_M11,T2_M11,T3_M11,T4_M11,T5_M11,U1_M11,ZSPAN_M11,X0_M11,X2_M11,X1_M11
2024-02-28 01:00:00,SystemResetWarning,0822.2,4.99,000.00,018.3,017.5,000.0,026.9,020.0,08.2,0000.0,0002.63,0000.78,0000.30
2024-02-28 01:01:00,SystemResetWarning,0822.2,5.00,000.00,018.3,017.4,000.0,026.9,020.0,08.4,0000.0,0002.15,0000.79,0000.30
2024-02-28 01:02:00,SystemResetWarning,0822.2,5.01,000.00,018.3,017.4,000.0,026.9,020.0,08.3,0000.0,0001.92,0000.73,0000.30
2024-02-28 01:03:00,SystemResetWarning,0822.2,5.01,000.00,018.3,017.4,000.0,026.9,020.0,07.7,0000.0,0001.90,0000.71,0000.29
2024-02-28 01:04:00,SystemResetWarning,0822.3,4.98,000.00,018.3,017.4,000.0,026.9,020.0,07.5,0000.0,0002.00,0000.74,0000.30
2024-02-28 01:05:00,SystemResetWarning,0822.3,5.00,000.00,018.3,017.4,000.0,026.9,020.0,07.6,0000.0,0002.09,0000.76,0000.30
2024-02-28 01:06:00,SystemResetWarning,0822.3,5.01,000.00,018.4,018.0,000.0,027.0,020.4,07.1,0000.0,0002.14,0000.77,0000.30
2024-02-28 01:07:00,SystemResetWarning,0822.2,4.99,000.00,018.6,018.9,000.0,027.1,020.9,07.1,0000.0,0002.98,0000.79,0000.31
2024-02-28 01:08:00,SystemResetWarning,0822.3,4.99,000.00,018.8,019.1,000.0,027.1,021.0,06.9,0000.0,0003.14,0000.77,0000.31
2024-02-28 01:09:00,SystemResetWarning,0822.4,4.99,000.00,018.8,019.0,000.0,027.0,020.9,07.0,0000.0,0003.11,0000.77,0000.31
2024-02-28 01:10:00,SystemResetWarning,0822.4,5.00,000.00,018.8,018.8,000.0,027.0,020.7,06.8,0000.0,0002.95,0000.78,0000.31
2024-02-28 01:11:00,SystemResetWarning,0822.4,5.00,000.00,018.8,018.6,000.0,027.0,020.6,06.9,0000.0,0002.84,0000.74,0000.31
2024-02-28 01:12:00,SystemResetWarning,0822.4,5.00,000.00,018.7,018.4,000.0,027.0,020.4,07.0,0000.0,0003.07,0000.74,0000.31
2024-02-28 01:13:00,SystemResetWarning,0822.6,5.01,000.00,018.7,018.3,000.0,027.0,020.3,07.2,0000.0,0003.84,0000.76,0000.31
2024-02-28 01:14:00,SystemResetWarning,0822.7,5.01,000.00,018.6,018.1,000.0,026.9,020.3,07.1,0000.0,0003.86,0000.76,0000.30
2024-02-28 01:15:00,SystemResetWarning,0823.1,5.00,000.00,018.6,018.0,000.0,026.9,020.2,06.9,0000.0,0003.77,0000.74,0000.30
2024-02-28 01:16:00,SystemResetWarning,0823.0,5.00,000.00,018.5,017.9,000.0,026.9,020.1,06.9,0000.0,0003.73,0000.75,0000.30
2024-02-28 01:17:00,SystemResetWarning,0822.8,4.99,000.00,018.5,017.8,000.0,026.9,020.1,07.0,0000.0,0004.07,0000.79,0000.31
2024-02-28 01:18:00,SystemResetWarning,0822.8,5.00,000.00,018.5,017.8,000.0,026.9,020.0,07.2,0000.0,0003.26,0000.81,0000.31
2024-02-28 01:19:00,SystemResetWarning,0822.6,5.00,000.00,018.4,017.7,000.0,026.9,020.0,07.3,0000.0,0002.99,0000.81,0000.31
2024-02-28 01:20:00,SystemResetWarning,0822.6,5.01,000.00,018.4,017.7,000.0,026.9,020.0,07.1,0000.0,0002.93,0000.78,0000.31
2024-02-28 01:21:00,SystemResetWarning,0822.5,5.00,000.00,018.4,017.6,000.0,026.9,020.0,06.8,0000.0,0004.16,0000.78,0000.30
2024-02-28 01:22:00,SystemResetWarning,0822.7,5.00,000.00,018.3,017.5,000.0,026.9,020.0,06.7,0000.0,0004.48,0000.81,0000.31
2024-02-28 01:23:00,SystemResetWarning,0822.7,4.98,000.00,018.3,017.5,000.0,026.9,020.0,06.9,0000.0,0005.15,0000.80,0000.30
2024-02-28 01:24:00,SystemResetWarning,0822.7,4.99,000.00,018.3,017.4,000.0,026.9,020.0,06.9,0000.0,0004.51,0000.79,0000.30
2024-02-28 01:25:00,SystemResetWarning,0822.6,5.01,000.00,018.3,017.4,000.0,026.9,020.0,06.7,0000.0,0004.46,0000.80,0000.31
2024-02-28 01:26:00,SystemResetWarning,0822.7,5.01,000.00,018.3,017.4,000.0,026.9,020.0,06.4,0000.0,0004.39,0000.77,0000.31
2024-02-28 01:27:00,SystemResetWarning,0822.8,4.99,000.00,018.3,017.8,000.0,027.0,020.2,06.2,0000.0,0004.36,0000.76,0000.31
2024-02-28 01:28:00,SystemResetWarning,0822.9,5.00,000.00,018.5,018.6,000.0,027.1,020.7,06.0,0000.0,0004.02,0000.75,0000.32
2024-02-28 01:29:00,SystemResetWarning,0822.9,5.01,000.00,018.7,019.1,000.0,027.1,021.0,06.0,0000.0,0003.95,0000.72,0000.31
2024-02-28 01:30:00,SystemResetWarning,0823.0,4.99,000.00,018.8,019.0,000.0,027.0,020.9,06.1,0000.0,0003.89,0000.69,0000.31
2024-02-28 01:31:00,SystemResetWarning,0823.1,4.99,000.00,018.8,018.8,000.0,027.0,020.7,06.3,0000.0,0003.86,0000.68,0000.31
2024-02-28 01:32:00,SystemResetWarning,0823.0,5.02,000.00,018.8,018.6,000.0,027.0,020.6,06.4,0000.0,0002.77,0000.69,0000.31
2024-02-28 01:33:00,SystemResetWarning,0823.1,4.99,000.00,018.7,018.5,000.0,027.0,020.5,05.9,0000.0,0002.50,0000.71,0000.31
2024-02-28 01:34:00,SystemResetWarning,0823.0,4.99,000.00,018.7,018.3,000.0,027.0,020.4,06.1,0000.0,0001.50,0000.72,0000.32
2024-02-28 01:35:00,SystemResetWarning,0822.9,5.02,000.00,018.7,018.2,000.0,027.0,020.3,06.2,0000.0,0001.86,0000.72,0000.32
2024-02-28 01:36:00,SystemResetWarning,0823.2,5.01,000.00,018.6,018.0,000.0,027.0,020.3,06.3,0000.0,0001.91,0000.70,0000.32
2024-02-28 01:37:00,SystemResetWarning,0823.0,4.99,000.00,018.6,017.9,000.0,027.0,020.2,06.5,0000.0,0001.92,0000.70,0000.32
2024-02-28 01:38:00,SystemResetWarning,0823.0,4.99,000.00,018.6,017.8,000.0,027.0,020.2,06.6,0000.0,0001.84,0000.67,0000.31
2024-02-28 01:39:00,SystemResetWarning,0822.9,5.01,000.00,018.5,017.8,000.0,027.0,020.2,06.3,0000.0,0001.80,0000.66,0000.31
2024-02-28 01:40:00,SystemResetWarning,0823.1,5.00,000.00,018.5,017.7,000.0,026.9,020.1,06.3,0000.0,0002.14,0000.69,0000.31
2024-02-28 01:41:00,SystemResetWarning,0823.0,5.00,000.00,018.4,017.7,000.0,026.9,020.0,06.3,0000.0,0002.17,0000.70,0000.30
2024-02-28 01:42:00,SystemResetWarning,0823.0,5.00,000.00,018.4,017.6,000.0,026.9,020.0,06.3,0000.0,0002.20,0000.71,0000.30
2024-02-28 01:43:00,SystemResetWarning,0823.0,5.00,000.00,018.4,017.6,000.0,026.9,020.0,06.4,0000.0,0002.12,0000.68,0000.30
2024-02-28 01:44:00,SystemResetWarning,0823.1,5.00,000.00,018.4,017.6,000.0,026.9,020.0,06.5,0000.0,0002.01,0000.65,0000.29
2024-02-28 01:45:00,SystemResetWarning,0823.1,5.00,000.00,018.3,017.5,000.0,026.9,020.0,06.6,0000.0,0002.02,0000.66,0000.29
2024-02-28 01:46:00,SystemResetWarning,0823.1,5.01,000.00,018.3,017.5,000.0,026.9,020.0,06.8,0000.0,0001.67,0000.69,0000.29
2024-02-28 01:47:00,SystemResetWarning,0823.1,5.00,000.00,018.3,017.5,000.0,026.9,020.0,06.3,0000.0,0001.69,0000.70,0000.30
2024-02-28 01:48:00,SystemResetWarning,0823.1,4.99,000.00,018.3,017.5,000.0,027.0,020.0,06.1,0000.0,0001.96,0000.70,0000.30
2024-02-28 01:49:00,SystemResetWarning,0823.2,4.99,000.00,018.4,018.0,000.0,027.0,020.3,06.3,0000.0,0001.97,0000.70,0000.31
2024-02-28 01:50:00,SystemResetWarning,0823.3,5.02,000.00,018.6,018.8,000.0,027.1,020.8,06.3,0000.0,0001.95,0000.68,0000.31
2024-02-28 01:51:00,SystemResetWarning,0823.3,4.99,000.00,018.7,018.8,000.0,027.0,020.8,06.4,0000.0,0001.56,0000.63,0000.30
2024-02-28 01:52:00,SystemResetWarning,0823.3,4.99,000.00,018.7,018.7,000.0,027.0,020.7,06.3,0000.0,0002.23,0000.67,0000.31
2024-02-28 01:53:00,SystemResetWarning,0823.5,5.00,000.00,018.7,018.5,000.0,027.0,020.5,06.3,0000.0,0002.94,0000.69,0000.30
2024-02-28 01:54:00,SystemResetWarning,0823.4,5.00,000.00,018.6,018.4,000.0,027.0,020.4,06.4,0000.0,0002.95,0000.68,0000.29
2024-02-28 01:55:00,SystemResetWarning,0823.3,5.01,000.00,018.6,018.2,000.0,027.0,020.3,06.1,0000.0,0002.90,0000.66,0000.29
2024-02-28 01:56:00,SystemResetWarning,0823.4,5.01,000.00,018.6,018.1,000.0,026.9,020.2,06.0,0000.0,0002.88,0000.65,0000.29
2024-02-28 01:57:00,SystemResetWarning,0823.4,5.01,000.00,018.5,018.0,000.0,026.9,020.2,06.0,0000.0,0002.89,0000.65,0000.30
2024-02-28 01:58:00,SystemResetWarning,0823.4,5.00,000.00,018.5,017.9,000.0,026.9,020.1,06.0,0000.0,0002.78,0000.64,0000.29
2024-02-28 01:59:00,SystemResetWarning,0823.4,5.00,000.00,018.5,017.8,000.0,026.9,020.1,05.9,0000.0,0002.51,0000.64,0000.29
